Overview Statistics Trail Chart Weather Telemetry Raw packets
 

This is the latest recevied weather packets stored in our database for station/object N3LF. If no packets are shown the sender has not sent any weather packets the latest 10 day(s).

<< 93 94 95 96 97 98 99 >>
Time Temp. Humidity Pressure Rain* Wind** Luminosity Snow
1787928087 26.11° C 79% 1021.6 hPa 0 mm - 422 W/m² -
1787927786 25.56° C 80% 1021.7 hPa 0 mm - 409 W/m² -
1787927482 25° C 81% 1021.6 hPa 0 mm - 398 W/m² -
1787927178 24.44° C 83% 1021.6 hPa 0 mm - 388 W/m² -
1787926878 24.44° C 84% 1021.5 hPa 0 mm - 375 W/m² -
1787926572 24.44° C 84% 1021.6 hPa 0 mm - 362 W/m² -
1787926271 23.89° C 85% 1021.5 hPa 0 mm - 347 W/m² -
1787925966 23.89° C 86% 1021.5 hPa 0 mm - 335 W/m² -
1787925661 23.33° C 87% 1021.5 hPa 0 mm - 320 W/m² -
1787925356 22.78° C 88% 1021.5 hPa 0 mm - 304 W/m² -
1787925055 23.33° C 87% 1021.4 hPa 0 mm - 290 W/m² -
1787924749 23.33° C 87% 1021.5 hPa 0 mm - 276 W/m² -
1787924449 23.33° C 88% 1021.2 hPa 0 mm - 260 W/m² -
1787924144 22.78° C 88% 1021.2 hPa 0 mm - 247 W/m² -
1787923838 22.78° C 89% 1021.3 hPa 0 mm - 233 W/m² -
1787923538 21.67° C 91% 1021.3 hPa 0 mm - 230 W/m² -
1787923234 21.67° C 91% 1021.4 hPa 0 mm - 218 W/m² -
1787922930 22.22° C 90% 1021.3 hPa 0 mm - 207 W/m² -
1787922629 21.67° C 92% 1021.5 hPa 0 mm - 193 W/m² -
1787922328 21.11° C 93% 1021.3 hPa 0 mm - 171 W/m² -
1787922026 21.11° C 93% 1021.2 hPa 0 mm - 166 W/m² -
1787921725 21.11° C 93% 1021.2 hPa 0 mm - 151 W/m² -
1787921425 20.56° C 94% 1021.3 hPa 0 mm - 138 W/m² -
1787921120 20° C 97% 1021.2 hPa 0 mm - 123 W/m² -
1787920815 20° C 99% 1021 hPa 0 mm - 92 W/m² -

* Rain latest hour (hover to see other rain measurements)
** Current wind speed in m/s (hover to see current wind gust speed)